Miscellaneous Local Product
Issued by NWS North Platte, NE

Current Version | Previous Version | Text Only | Print | Product List | Glossary On
Versions: 1 2 3 4 5 6 7 8 9 10 11 12 13 14 15 16 17 18 19 20 21 22 23 24 25 26 27 28 29 30 31 32 33 34 35 36 37 38 39 40 41 42 43 44 45 46 47 48 49 50
494
AXUS43 KLBF 292110
MISLBF


WESTERN AND NORTH CENTRAL NEBRASKA HOURLY WEATHER ROUNDUP
NATIONAL WEATHER SERVICE NORTH PLATTE NE
400 PM CDT SUN MAY 29 2016

NOTE: "FAIR" INDICATES FEW OR NO CLOUDS BELOW 12,000 FEET WITH NO
SIGNIFICANT WEATHER AND/OR OBSTRUCTIONS TO VISIBILITY.

NOTE: STATIONS NOT REPORTING VARIABLES SUCH AS SKY/WEATHER OR
PRESSURE ARE PROVIDED BY RAWS AND APRS NETWORKS AND ARE NOT UNDER
NATIONAL WEATHER SERVICE QUALITY CONTROL.

...OBSERVATIONS IN AND NEAR THE EASTERN PANHANDLE OF NEBRASKA...

CITY           SKY/WX    TMP DP  RH WIND       PRES   REMARKS
PINE RIDGE     MOSUNNY   79  43  27 W12G17    30.02F
CHADRON        SUNNY     82  45  27 VRB7      30.00F
ALLIANCE       SUNNY     78  44  29 SW10G17   30.04F
SIDNEY         SUNNY     79  40  24 SW8       30.08F
CRESCENT LAKE    N/A     79  42  26 SW7         N/A
BIG SPRINGS      N/A     82  50  32 S12         N/A
$$

...OBSERVATIONS IN NORTHERN NEBRASKA AND FAR SOUTHERN SOUTH DAKOTA...

CITY           SKY/WX    TMP DP  RH WIND       PRES   REMARKS
WINNER         FAIR      79  55  43 E7        30.03F
VALENTINE      SUNNY     78  52  40 SE9       30.03F
THEDFORD       MOSUNNY   83  52  34 S6        30.04F
AINSWORTH      SUNNY     77  53  43 S8G16     30.05F
O`NEILL        SUNNY     77  56  47 CALM      30.06F
ORD            SUNNY     81  54  39 E7        30.03F
BROKEN BOW     SUNNY     80  57  45 SE9       30.03F
BUTTE            N/A     75  56  51 SE9         N/A
CHAMBERS         N/A     85  56  36 CALM        N/A
EWING            N/A     80  61  51 CALM        N/A
$$

...OBSERVATIONS IN SOUTHWEST NEBRASKA AND FAR NORTHEAST COLORADO...

CITY           SKY/WX    TMP DP  RH WIND       PRES   REMARKS
WRAY           FAIR      82  45  26 S9        30.03F
IMPERIAL       MOSUNNY   80  52  37 S12       30.01F
OGALLALA       SUNNY     79  50  36 S6        30.03F
NORTH PLATTE   SUNNY     82  56  40 SE7       30.02F
MCCOOK         SUNNY     84  54  35 VRB6      29.99F
LEXINGTON      SUNNY     81  57  43 S5        30.03F
PAXTON           N/A     81  54  38 S5          N/A
STAPLETON        N/A     84  56  38 CALM        N/A
GOTHENBURG       N/A     82  52  35 SE5         N/A
CALLAWAY         N/A     80  59  48 SE7         N/A
$$

...OBSERVATIONS IN CENTRAL LINCOLN COUNTY AREA...

CITY           SKY/WX    TMP DP  RH WIND       PRES   REMARKS
N.P. AIRPORT   SUNNY     82  56  40 SE7       30.02F
N.P. DOWNTOWN    N/A     83  56  39 MISG        N/A
N.P. SOUTHEAST   N/A     83  55  38 SE6         N/A
N.P. HILLCREST   N/A     81  53  37 SE8G16      N/A
$$

...SOME OBSERVATIONS FROM AROUND THE REGION...

CITY           SKY/WX    TMP DP  RH WIND       PRES   REMARKS
DENVER         CLOUDY    73  45  36 S3        30.09F
LARAMIE        CLOUDY    65  35  33 N12G18    30.20F
CHEYENNE       SUNNY     72  36  26 VRB5      30.13F
SCOTTSBLUFF    MOSUNNY   75  44  33 S6        30.05F
RAPID CITY     CLOUDY    69  50  50 SE7       30.03F
BISMARCK       MOSUNNY   79  45  29 MISG      29.98F
PIERRE         SUNNY     77  50  38 CALM      30.01F
SIOUX FALLS    MOSUNNY   78  50  37 NW9G17    30.03F
OMAHA          MOSUNNY   85  56  37 VRB6      30.03F
GRAND ISLAND   SUNNY     81  56  42 E7        30.04F
KANSAS CITY    MOSUNNY   84  58  40 SW8       30.07F
WICHITA        PTSUNNY   85  60  42 S6        30.04F
OKLAHOMA CITY  MOSUNNY   88  54  31 CALM      30.04F
DALLAS         MOSUNNY   88  68  51 E13       30.03F HX  91
AMARILLO       CLOUDY    59  51  75 NE26G36   30.13R THUNDER
DODGE CITY     SUNNY     79  50  36 S16       30.03F
HAYS           CLOUDY    82  61  47 SW7       30.01F
GOODLAND       SUNNY     82  52  35 S12       30.00F
$$




USA.gov is the U.S. government's official web portal to all federal, state and local government web resources and services.